Meteo Giornale » Osservazioni meteo Germania » Friedrichshafen

ore: 13:50 - Osservazioni Meteo Friedrichshafen
Lat. 47° 40' N Lon. 9° 31' E Alt. 416 metri s.l.m.

sereno Europe/Berlin

23 °C

Sereno

Temp. 24 Ore

11 °C

23 °C

Nord-Est

9.3 Km/h

Dew point 9 °C

Umidità 40 %

Visibilità  10 Km

Il sole sorge alle ore 05:36

Il sole tramonta alle ore 21:18

Data e Ora Cielo e Fenomeni T °C DP °C Um. % Pres. hPa Vis. km Vento km/h
Oggi h: 13:50 sereno Sereno 23 9 40 1021 10 NE 9.3
Oggi h: 13:20 sereno Sereno 22 11 49 1021 10 N/NE 9.3
Oggi h: 12:50 sereno Sereno 22 11 49 1021 10 N 13
Oggi h: 12:20 sereno Sereno 21 11 52 1021 10 E/NE 11.1
Oggi h: 11:50 sereno Sereno 21 10 49 1022 10 E/NE 9.3
Oggi h: 11:20 sereno Sereno 20 11 56 1022 10 NE 9.3
Oggi h: 10:50 sereno Sereno 20 9 49 1022 10 NE 9.3
Oggi h: 10:20 sereno Sereno 20 11 56 1022 10 N 5.5
Oggi h: 09:50 sereno Sereno 18 11 63 1022 10 E/NE 7.4
Oggi h: 09:20 sereno Sereno 17 11 67 1022 10 N/NE 7.4
Oggi h: 08:50 sereno Sereno 16 10 67 1022 10 NE 9.3
Oggi h: 08:20 sereno Sereno 15 9 67 1022 10 NE 13
Oggi h: 07:50 sereno Sereno 14 9 71 1022 10 NE 9.3
Oggi h: 07:20 sereno Sereno 13 9 76 1022 10 NE 11.1
Oggi h: 06:50 sereno Sereno 12 8 76 1022 10 NE 9.3
Oggi h: 05:50 sereno Sereno 11 8 81 1022 10 NE 9.3
Oggi h: 05:20 sereno Sereno 11 8 81 1022 10 NE 9.3
Oggi h: 04:50 sereno Sereno 12 8 76 1022 10 NE 7.4
Oggi h: 04:20 sereno Sereno 12 8 76 1022 10 NE 9.3
Oggi h: 03:50 sereno Sereno 13 8 71 1022 10 NE 7.4
Oggi h: 03:20 sereno Sereno 13 8 71 1022 10 N/NE 13
Oggi h: 02:50 sereno Sereno 13 8 71 1022 10 NE 9.3
Oggi h: 02:20 sereno Sereno 13 8 71 1023 10 NE 7.4
Oggi h: 01:50 sereno Sereno 14 8 67 1023 10 NE 11.1
Oggi h: 00:50 sereno Sereno 15 8 62 1023 10 N 14.8
Oggi h: 00:20 sereno Sereno 16 8 58 1023 10 N 11.1
Ieri h: 23:50 sereno Sereno 16 8 58 1023 10 N 13
Ieri h: 23:20 sereno Sereno 17 8 55 1023 10 N/NE 13
Ieri h: 22:50 sereno Sereno 17 8 55 1023 10 N 13
Ieri h: 22:20 sereno Sereno 17 8 55 1023 10 N 13
Ieri h: 21:50 sereno Sereno 18 8 51 1023 10 N 13
Ieri h: 21:20 sereno Sereno 19 8 48 1023 10 N/NE 14.8
Ieri h: 20:50 sereno Sereno 20 9 49 1023 10 N/NE 14.8
Ieri h: 20:20 sereno Sereno 21 8 43 1023 10 NE 14.8
Ieri h: 19:50 sereno Sereno 21 9 46 1023 10 NE 18.5
Ieri h: 19:20 sereno Sereno 22 9 43 1023 10 NE 16.7
Ieri h: 18:50 sereno Sereno 22 9 43 1023 10 N/NE 20.3
Ieri h: 17:50 poco_nuvoloso Poco Nuvoloso 23 10 43 1023 10 NE 14.8
Ieri h: 17:20 poco_nuvoloso Poco Nuvoloso 23 8 38 1023 10 N/NE 14.8
Ieri h: 16:50 poco_nuvoloso Poco Nuvoloso 23 9 40 1023 10 N/NE 14.8
Ieri h: 16:20 sereno Sereno 23 10 43 1024 10 N/NE 13
Ieri h: 15:50 sereno Sereno 23 10 43 1024 10 N/NE 16.7
Ieri h: 15:20 sereno Sereno 23 9 40 1024 10 NE 16.7
Ieri h: 14:50 sereno Sereno 23 9 40 1024 10 N 14.8